Time,TemperatureF,DewpointF,PressureIn,WindDirection,WindDirectionDegrees,WindSpeedMPH,WindSpeedGustMPH,Humidity,HourlyPrecipIn,Conditions,Clouds,dailyrainin,SoftwareType,DateUTC
2013-01-07 00:02:00,37.4,37.1,29.98,East,91,2.0,0.0,99,0.01,RA,OVC,0.00,WeatherDisplay:10.37,2013-01-07 08:02:00,
2013-01-07 00:07:00,37.4,37.1,29.98,East,93,1.0,0.0,99,0.02,RA,OVC,0.01,WeatherDisplay:10.37,2013-01-07 08:07:00,
2013-01-07 00:17:00,37.4,37.1,29.98,ENE,78,2.0,0.0,99,0.02,RA,OVC,0.03,WeatherDisplay:10.37,2013-01-07 08:17:00,
2013-01-07 00:22:00,37.4,37.1,29.97,East,85,1.0,0.0,99,0.01,RA,OVC,0.03,WeatherDisplay:10.37,2013-01-07 08:22:00,
2013-01-07 00:27:00,37.4,37.1,29.97,East,88,1.0,0.0,99,0.01,RA,OVC,0.04,WeatherDisplay:10.37,2013-01-07 08:27:00,
2013-01-07 00:32:00,37.4,37.1,29.97,East,91,2.0,0.0,99,0.02,RA,OVC,0.05,WeatherDisplay:10.37,2013-01-07 08:32:00,
2013-01-07 00:37:00,37.4,37.1,29.96,East,89,2.0,0.0,99,0.01,RA,OVC,0.05,WeatherDisplay:10.37,2013-01-07 08:37:00,
2013-01-07 00:42:00,37.4,37.1,29.96,East,84,3.0,0.0,99,0.01,RA,OVC,0.06,WeatherDisplay:10.37,2013-01-07 08:42:00,
2013-01-07 00:47:00,37.4,37.1,29.96,East,90,2.0,0.0,99,0.02,RA,OVC,0.07,WeatherDisplay:10.37,2013-01-07 08:47:00,
2013-01-07 00:52:00,37.4,37.2,29.96,East,89,2.0,0.0,99,0.02,RA,OVC,0.08,WeatherDisplay:10.37,2013-01-07 08:52:00,
2013-01-07 00:57:00,37.4,37.1,29.95,East,87,2.0,0.0,99,0.02,RA,OVC,0.09,WeatherDisplay:10.37,2013-01-07 08:57:00,
2013-01-07 01:07:00,37.5,37.2,29.95,East,94,1.0,0.0,99,0.01,RA,OVC,0.10,WeatherDisplay:10.37,2013-01-07 09:07:00,
2013-01-07 01:12:00,37.5,37.2,29.95,East,93,1.0,0.0,99,0.01,RA,OVC,0.11,WeatherDisplay:10.37,2013-01-07 09:12:00,
2013-01-07 01:17:00,37.5,37.2,29.95,East,95,1.0,0.0,99,0.02,RA,OVC,0.12,WeatherDisplay:10.37,2013-01-07 09:17:00,
2013-01-07 01:22:00,37.5,37.2,29.95,East,92,2.0,0.0,99,0.01,RA,OVC,0.12,WeatherDisplay:10.37,2013-01-07 09:22:00,
2013-01-07 01:27:00,37.5,37.2,29.95,East,86,1.0,0.0,99,0.01,RA,OVC,0.13,WeatherDisplay:10.37,2013-01-07 09:27:00,
2013-01-07 01:32:00,37.6,37.3,29.95,East,87,2.0,0.0,99,0.02,RA,OVC,0.14,WeatherDisplay:10.37,2013-01-07 09:32:00,
2013-01-07 01:37:00,37.6,37.3,29.95,East,90,2.0,0.0,99,0.02,RA,OVC,0.15,WeatherDisplay:10.37,2013-01-07 09:37:00,
2013-01-07 01:42:00,37.6,37.4,29.95,East,83,1.0,0.0,99,0.02,RA,OVC,0.16,WeatherDisplay:10.37,2013-01-07 09:42:00,
2013-01-07 01:47:00,37.7,37.4,29.95,East,86,1.0,0.0,99,0.02,RA,OVC,0.17,WeatherDisplay:10.37,2013-01-07 09:47:00,
2013-01-07 01:52:00,37.6,37.4,29.95,East,88,1.0,0.0,99,0.01,RA,OVC,0.17,WeatherDisplay:10.37,2013-01-07 09:52:00,
2013-01-07 01:57:00,37.6,37.3,29.95,East,82,3.0,0.0,99,0.02,RA,OVC,0.19,WeatherDisplay:10.37,2013-01-07 09:57:00,
2013-01-07 02:02:00,37.6,37.3,29.94,East,79,3.0,0.0,99,0.03,RA,OVC,0.20,WeatherDisplay:10.37,2013-01-07 10:02:00,
2013-01-07 02:07:00,37.6,37.3,29.94,East,87,2.0,0.0,99,0.01,RA,OVC,0.20,WeatherDisplay:10.37,2013-01-07 10:07:00,
2013-01-07 02:12:00,37.6,37.3,29.94,East,85,2.0,0.0,99,0.01,RA,OVC,0.21,WeatherDisplay:10.37,2013-01-07 10:12:00,
2013-01-07 02:17:00,37.6,37.3,29.94,East,81,3.0,0.0,99,0.02,RA,OVC,0.22,WeatherDisplay:10.37,2013-01-07 10:17:00,
2013-01-07 02:22:00,37.6,37.3,29.93,East,84,2.0,0.0,99,0.02,RA,OVC,0.23,WeatherDisplay:10.37,2013-01-07 10:22:00,
2013-01-07 02:27:00,37.7,37.4,29.93,East,84,3.0,0.0,99,0.02,RA,OVC,0.24,WeatherDisplay:10.37,2013-01-07 10:27:00,
2013-01-07 02:32:00,37.7,37.4,29.93,East,82,2.0,0.0,99,0.02,RA,OVC,0.25,WeatherDisplay:10.37,2013-01-07 10:32:00,
2013-01-07 02:37:00,37.7,37.5,29.93,East,84,1.0,0.0,99,0.02,RA,OVC,0.26,WeatherDisplay:10.37,2013-01-07 10:37:00,
2013-01-07 02:42:00,37.8,37.5,29.93,East,85,0.0,0.0,99,0.01,RA,OVC,0.26,WeatherDisplay:10.37,2013-01-07 10:42:00,
2013-01-07 02:47:00,37.8,37.6,29.92,East,87,2.0,0.0,99,0.02,RA,OVC,0.28,WeatherDisplay:10.37,2013-01-07 10:47:00,
2013-01-07 02:52:00,37.9,37.6,29.92,East,86,0.0,0.0,99,0.02,RA,OVC,0.28,WeatherDisplay:10.37,2013-01-07 10:52:00,
2013-01-07 02:57:00,37.9,37.6,29.92,East,88,1.0,0.0,99,0.01,RA,OVC,0.29,WeatherDisplay:10.37,2013-01-07 10:57:00,
2013-01-07 03:02:00,37.9,37.6,29.92,East,84,3.0,0.0,99,0.02,RA,OVC,0.30,WeatherDisplay:10.37,2013-01-07 11:02:00,
2013-01-07 03:07:00,38.0,37.7,29.92,East,85,2.0,0.0,99,0.02,RA,OVC,0.31,WeatherDisplay:10.37,2013-01-07 11:07:00,
2013-01-07 03:12:00,38.0,37.7,29.91,East,80,5.0,0.0,99,0.02,RA,OVC,0.32,WeatherDisplay:10.37,2013-01-07 11:12:00,
2013-01-07 03:17:00,38.1,37.8,29.90,East,85,2.0,0.0,99,0.01,RA,OVC,0.32,WeatherDisplay:10.37,2013-01-07 11:17:00,
2013-01-07 03:22:00,38.1,37.8,29.90,East,86,3.0,0.0,99,0.01,RA,OVC,0.33,WeatherDisplay:10.37,2013-01-07 11:22:00,
2013-01-07 03:27:00,38.1,37.9,29.90,East,83,3.0,0.0,99,0.02,RA,OVC,0.34,WeatherDisplay:10.37,2013-01-07 11:27:00,
2013-01-07 03:32:00,38.2,37.9,29.90,East,87,1.0,0.0,99,0.02,RA,OVC,0.35,WeatherDisplay:10.37,2013-01-07 11:32:00,
2013-01-07 03:37:00,38.2,37.9,29.90,East,90,1.0,0.0,99,0.01,RA,OVC,0.35,WeatherDisplay:10.37,2013-01-07 11:37:00,
2013-01-07 03:42:00,38.3,38.0,29.90,East,94,2.0,0.0,99,0.01,RA,OVC,0.36,WeatherDisplay:10.37,2013-01-07 11:42:00,
2013-01-07 03:47:00,38.3,38.0,29.89,East,96,0.0,0.0,99,0.02,RA,OVC,0.37,WeatherDisplay:10.37,2013-01-07 11:47:00,
2013-01-07 03:52:00,38.3,38.0,29.89,ESE,106,1.0,0.0,99,0.02,RA,OVC,0.38,WeatherDisplay:10.37,2013-01-07 11:52:00,
2013-01-07 03:57:00,38.3,38.1,29.88,ESE,108,1.0,0.0,99,0.02,RA,OVC,0.39,WeatherDisplay:10.37,2013-01-07 11:57:00,
2013-01-07 04:02:00,38.4,38.1,29.89,East,88,1.0,0.0,99,0.01,RA,OVC,0.39,WeatherDisplay:10.37,2013-01-07 12:02:00,
2013-01-07 04:07:00,38.4,38.1,29.88,East,88,1.0,0.0,99,0.01,RA,OVC,0.40,WeatherDisplay:10.37,2013-01-07 12:07:00,
2013-01-07 04:12:00,38.4,38.1,29.88,East,90,1.0,0.0,99,0.01,RA,OVC,0.40,WeatherDisplay:10.37,2013-01-07 12:12:00,
2013-01-07 04:17:00,38.4,38.1,29.88,East,99,0.0,0.0,99,0.00,,OVC,0.40,WeatherDisplay:10.37,2013-01-07 12:17:00,
2013-01-07 04:22:00,38.4,38.1,29.88,ESE,115,1.0,0.0,99,0.01,RA,OVC,0.41,WeatherDisplay:10.37,2013-01-07 12:22:00,
2013-01-07 04:27:00,38.4,38.1,29.88,ESE,103,1.0,0.0,99,0.01,RA,OVC,0.41,WeatherDisplay:10.37,2013-01-07 12:27:00,
2013-01-07 04:32:00,38.3,38.1,29.87,East,100,0.0,0.0,99,0.01,RA,OVC,0.42,WeatherDisplay:10.37,2013-01-07 12:32:00,
2013-01-07 04:37:00,38.3,38.0,29.87,East,94,2.0,0.0,99,0.02,RA,OVC,0.43,WeatherDisplay:10.37,2013-01-07 12:37:00,
2013-01-07 04:42:00,38.3,38.1,29.86,East,96,1.0,0.0,99,0.01,RA,OVC,0.43,WeatherDisplay:10.37,2013-01-07 12:42:00,
2013-01-07 04:47:00,38.3,38.0,29.86,East,94,1.0,0.0,99,0.00,,OVC,0.43,WeatherDisplay:10.37,2013-01-07 12:47:00,
2013-01-07 04:52:00,38.3,38.0,29.85,East,87,0.0,0.0,99,0.01,RA,OVC,0.44,WeatherDisplay:10.37,2013-01-07 12:52:00,
2013-01-07 04:57:00,38.3,38.0,29.85,East,82,1.0,0.0,99,0.02,RA,OVC,0.45,WeatherDisplay:10.37,2013-01-07 12:57:00,
2013-01-07 05:02:00,38.3,38.1,29.85,East,83,3.0,0.0,99,0.01,RA,OVC,0.45,WeatherDisplay:10.37,2013-01-07 13:02:00,
2013-01-07 05:07:00,38.4,38.1,29.84,East,95,0.0,0.0,99,0.01,RA,OVC,0.46,WeatherDisplay:10.37,2013-01-07 13:07:00,
2013-01-07 05:12:00,38.4,38.1,29.84,ESE,108,0.0,0.0,99,0.02,RA,OVC,0.47,WeatherDisplay:10.37,2013-01-07 13:12:00,
2013-01-07 05:17:00,38.5,38.2,29.84,East,99,1.0,0.0,99,0.01,RA,OVC,0.47,WeatherDisplay:10.37,2013-01-07 13:17:00,
2013-01-07 05:22:00,38.6,38.3,29.84,East,93,1.0,0.0,99,0.01,RA,OVC,0.48,WeatherDisplay:10.37,2013-01-07 13:22:00,
2013-01-07 05:27:00,38.6,38.3,29.83,ESE,110,1.0,0.0,99,0.02,RA,OVC,0.49,WeatherDisplay:10.37,2013-01-07 13:27:00,
2013-01-07 05:32:00,38.7,38.4,29.83,ESE,103,1.0,0.0,99,0.01,RA,OVC,0.49,WeatherDisplay:10.37,2013-01-07 13:32:00,
2013-01-07 05:37:00,38.7,38.5,29.83,East,99,1.0,0.0,99,0.01,RA,OVC,0.50,WeatherDisplay:10.37,2013-01-07 13:37:00,
2013-01-07 05:42:00,38.8,38.5,29.83,East,91,0.0,0.0,99,0.02,RA,OVC,0.51,WeatherDisplay:10.37,2013-01-07 13:42:00,
2013-01-07 05:47:00,38.9,38.6,29.83,East,86,0.0,0.0,99,0.02,RA,OVC,0.52,WeatherDisplay:10.37,2013-01-07 13:47:00,
2013-01-07 05:52:00,38.9,38.7,29.83,East,91,0.0,0.0,99,0.02,RA,OVC,0.53,WeatherDisplay:10.37,2013-01-07 13:52:00,
2013-01-07 05:57:00,39.1,38.8,29.83,East,95,0.0,0.0,99,0.02,RA,OVC,0.54,WeatherDisplay:10.37,2013-01-07 13:57:00,
2013-01-07 06:02:00,39.1,38.9,29.83,East,92,2.0,0.0,99,0.02,RA,OVC,0.55,WeatherDisplay:10.37,2013-01-07 14:02:00,
2013-01-07 06:07:00,39.3,39.0,29.83,East,94,1.0,0.0,99,0.03,RA,OVC,0.57,WeatherDisplay:10.37,2013-01-07 14:07:00,
2013-01-07 06:12:00,39.4,39.1,29.84,ESE,103,1.0,0.0,99,0.03,RA,OVC,0.58,WeatherDisplay:10.37,2013-01-07 14:12:00,
2013-01-07 06:17:00,39.5,39.2,29.83,East,100,1.0,0.0,99,0.02,RA,OVC,0.59,WeatherDisplay:10.37,2013-01-07 14:17:00,
2013-01-07 06:22:00,39.5,39.3,29.83,East,98,1.0,0.0,99,0.03,RA,OVC,0.61,WeatherDisplay:10.37,2013-01-07 14:22:00,
2013-01-07 06:27:00,39.6,39.3,29.83,ESE,106,0.0,0.0,99,0.04,RA,OVC,0.63,WeatherDisplay:10.37,2013-01-07 14:27:00,
2013-01-07 06:32:00,39.6,39.4,29.83,East,93,1.0,0.0,99,0.03,RA,OVC,0.64,WeatherDisplay:10.37,2013-01-07 14:32:00,
2013-01-07 06:37:00,39.7,39.4,29.83,East,97,0.0,0.0,99,0.02,RA,OVC,0.65,WeatherDisplay:10.37,2013-01-07 14:37:00,
2013-01-07 06:42:00,39.7,39.4,29.83,ESE,106,1.0,0.0,99,0.02,RA,OVC,0.66,WeatherDisplay:10.37,2013-01-07 14:42:00,
2013-01-07 06:47:00,39.7,39.4,29.83,East,97,0.0,0.0,99,0.02,RA,OVC,0.67,WeatherDisplay:10.37,2013-01-07 14:47:00,
2013-01-07 06:52:00,39.8,39.5,29.83,ESE,109,1.0,0.0,99,0.01,RA,OVC,0.67,WeatherDisplay:10.37,2013-01-07 14:52:00,
2013-01-07 06:57:00,39.8,39.5,29.83,ESE,108,0.0,0.0,99,0.01,RA,OVC,0.68,WeatherDisplay:10.37,2013-01-07 14:57:00,
2013-01-07 07:02:00,39.8,39.5,29.83,East,94,1.0,0.0,99,0.02,RA,OVC,0.69,WeatherDisplay:10.37,2013-01-07 15:02:00,
2013-01-07 07:07:00,39.8,39.6,29.83,ESE,103,0.0,0.0,99,0.01,RA,OVC,0.69,WeatherDisplay:10.37,2013-01-07 15:07:00,
2013-01-07 07:12:00,39.9,39.6,29.83,SE,136,1.0,0.0,99,0.00,,OVC,0.69,WeatherDisplay:10.37,2013-01-07 15:12:00,
2013-01-07 07:17:00,40.0,39.7,29.82,ESE,117,1.0,0.0,99,0.00,,OVC,0.69,WeatherDisplay:10.37,2013-01-07 15:17:00,
2013-01-07 07:22:00,40.0,39.7,29.82,ESE,113,1.0,0.0,99,0.01,RA,OVC,0.70,WeatherDisplay:10.37,2013-01-07 15:22:00,
2013-01-07 07:27:00,40.1,39.8,29.82,East,100,2.0,0.0,99,0.01,RA,OVC,0.70,WeatherDisplay:10.37,2013-01-07 15:27:00,
2013-01-07 07:32:00,40.2,39.9,29.83,ESE,114,1.0,0.0,99,0.00,,OVC,0.70,WeatherDisplay:10.37,2013-01-07 15:32:00,
2013-01-07 07:37:00,40.2,39.9,29.83,ESE,123,1.0,0.0,99,0.00,,OVC,0.70,WeatherDisplay:10.37,2013-01-07 15:37:00,
2013-01-07 07:42:00,40.3,40.0,29.83,ESE,109,1.0,0.0,99,0.00,,OVC,0.70,WeatherDisplay:10.37,2013-01-07 15:42:00,
2013-01-07 07:47:00,40.3,40.0,29.83,ESE,115,1.0,0.0,99,0.01,RA,OVC,0.71,WeatherDisplay:10.37,2013-01-07 15:47:00,
2013-01-07 07:52:00,40.3,40.0,29.83,East,96,1.0,0.0,99,0.01,RA,OVC,0.71,WeatherDisplay:10.37,2013-01-07 15:52:00,
2013-01-07 07:57:00,40.3,40.1,29.83,East,83,1.0,0.0,99,0.00,,OVC,0.71,WeatherDisplay:10.37,2013-01-07 15:57:00,
2013-01-07 08:02:00,40.4,40.1,29.83,East,89,2.0,0.0,99,0.00,CLR,OVC,0.71,WeatherDisplay:10.37,2013-01-07 16:02:00,
2013-01-07 08:07:00,40.4,40.1,29.83,ESE,112,1.0,0.0,99,0.01,RA,OVC,0.72,WeatherDisplay:10.37,2013-01-07 16:07:00,
2013-01-07 08:12:00,40.5,40.2,29.83,ESE,112,1.0,0.0,99,0.01,RA,OVC,0.72,WeatherDisplay:10.37,2013-01-07 16:12:00,
2013-01-07 08:17:00,40.5,40.2,29.83,East,99,1.0,0.0,99,0.00,CLR,OVC,0.72,WeatherDisplay:10.37,2013-01-07 16:17:00,
2013-01-07 08:22:00,40.6,40.3,29.83,East,100,1.0,0.0,99,0.00,CLR,OVC,0.72,WeatherDisplay:10.37,2013-01-07 16:22:00,
2013-01-07 08:27:00,40.6,40.3,29.83,SE,126,1.0,0.0,99,0.01,RA,OVC,0.73,WeatherDisplay:10.37,2013-01-07 16:27:00,
2013-01-07 08:32:00,40.6,40.3,29.83,SSE,152,0.0,0.0,99,0.01,RA,OVC,0.73,WeatherDisplay:10.37,2013-01-07 16:32:00,
2013-01-07 08:37:00,40.6,40.4,29.84,ESE,109,0.0,0.0,99,0.00,CLR,OVC,0.73,WeatherDisplay:10.37,2013-01-07 16:37:00,
2013-01-07 08:42:00,40.7,40.4,29.84,East,89,0.0,0.0,99,0.00,CLR,OVC,0.73,WeatherDisplay:10.37,2013-01-07 16:42:00,
2013-01-07 08:47:00,40.7,40.4,29.84,ESE,106,0.0,0.0,99,0.00,CLR,OVC,0.73,WeatherDisplay:10.37,2013-01-07 16:47:00,
2013-01-07 08:52:00,40.7,40.4,29.84,ESE,107,0.0,0.0,99,0.00,CLR,OVC,0.73,WeatherDisplay:10.37,2013-01-07 16:52:00,
2013-01-07 08:57:00,40.7,40.4,29.84,ESE,106,1.0,0.0,99,0.01,RA,OVC,0.74,WeatherDisplay:10.37,2013-01-07 16:57:00,
2013-01-07 09:02:00,40.7,40.5,29.85,ESE,122,1.0,0.0,99,0.01,RA,OVC,0.74,WeatherDisplay:10.37,2013-01-07 17:02:00,
2013-01-07 09:07:00,40.8,40.5,29.85,SE,127,0.0,0.0,99,0.01,RA,OVC,0.75,WeatherDisplay:10.37,2013-01-07 17:07:00,
2013-01-07 09:12:00,40.8,40.5,29.85,ESE,115,0.0,0.0,99,0.01,RA,OVC,0.75,WeatherDisplay:10.37,2013-01-07 17:12:00,
2013-01-07 09:17:00,40.8,40.5,29.86,ESE,115,0.0,0.0,99,0.01,RA,OVC,0.76,WeatherDisplay:10.37,2013-01-07 17:17:00,
2013-01-07 09:22:00,40.9,40.6,29.86,SE,133,0.0,0.0,99,0.01,RA,OVC,0.76,WeatherDisplay:10.37,2013-01-07 17:22:00,
2013-01-07 09:27:00,40.9,40.6,29.85,ESE,112,0.0,0.0,99,0.01,RA,OVC,0.77,WeatherDisplay:10.37,2013-01-07 17:27:00,
2013-01-07 09:32:00,41.0,40.7,29.85,ESE,105,0.0,0.0,99,0.01,RA,OVC,0.77,WeatherDisplay:10.37,2013-01-07 17:32:00,
2013-01-07 09:37:00,41.1,40.8,29.85,ESE,105,0.0,0.0,99,0.01,RA,OVC,0.78,WeatherDisplay:10.37,2013-01-07 17:37:00,
2013-01-07 09:42:00,41.2,40.9,29.85,SE,128,0.0,0.0,99,0.01,RA,OVC,0.78,WeatherDisplay:10.37,2013-01-07 17:42:00,
2013-01-07 09:47:00,41.3,41.0,29.86,SE,141,0.0,0.0,99,0.00,CLR,OVC,0.78,WeatherDisplay:10.37,2013-01-07 17:47:00,
2013-01-07 09:52:00,41.3,41.1,29.86,SE,146,0.0,0.0,99,0.01,RA,OVC,0.79,WeatherDisplay:10.37,2013-01-07 17:52:00,
2013-01-07 09:57:00,41.4,41.1,29.86,SE,134,0.0,0.0,99,0.01,RA,OVC,0.79,WeatherDisplay:10.37,2013-01-07 17:57:00,
2013-01-07 10:02:00,41.5,41.2,29.86,ESE,112,0.0,0.0,99,0.00,CLR,OVC,0.79,WeatherDisplay:10.37,2013-01-07 18:02:00,
2013-01-07 10:07:00,41.6,41.3,29.86,East,98,0.0,0.0,99,0.01,RA,OVC,0.80,WeatherDisplay:10.37,2013-01-07 18:07:00,
2013-01-07 10:12:00,41.7,41.4,29.87,ESE,106,0.0,0.0,99,0.01,RA,OVC,0.80,WeatherDisplay:10.37,2013-01-07 18:12:00,
2013-01-07 10:17:00,41.8,41.5,29.87,ESE,113,0.0,0.0,99,0.01,RA,OVC,0.81,WeatherDisplay:10.37,2013-01-07 18:17:00,
2013-01-07 10:22:00,41.9,41.6,29.88,ESE,107,0.0,0.0,99,0.01,RA,OVC,0.81,WeatherDisplay:10.37,2013-01-07 18:22:00,
2013-01-07 10:27:00,41.9,41.7,29.88,ESE,115,0.0,0.0,99,0.00,CLR,OVC,0.81,WeatherDisplay:10.37,2013-01-07 18:27:00,
2013-01-07 10:32:00,42.0,41.7,29.88,ESE,119,1.0,0.0,99,0.01,RA,OVC,0.82,WeatherDisplay:10.37,2013-01-07 18:32:00,
2013-01-07 10:37:00,42.1,41.8,29.88,East,91,1.0,0.0,99,0.01,RA,OVC,0.82,WeatherDisplay:10.37,2013-01-07 18:37:00,
2013-01-07 10:42:00,42.2,41.9,29.88,East,88,0.0,0.0,99,0.01,RA,OVC,0.83,WeatherDisplay:10.37,2013-01-07 18:42:00,
2013-01-07 10:47:00,42.2,42.0,29.88,East,101,0.0,0.0,99,0.01,RA,OVC,0.83,WeatherDisplay:10.37,2013-01-07 18:47:00,
2013-01-07 10:52:00,42.3,42.0,29.89,East,83,0.0,0.0,99,0.00,CLR,OVC,0.83,WeatherDisplay:10.37,2013-01-07 18:52:00,
2013-01-07 10:57:00,42.3,42.0,29.88,ESE,116,0.0,0.0,99,0.01,RA,OVC,0.84,WeatherDisplay:10.37,2013-01-07 18:57:00,
2013-01-07 11:02:00,42.4,42.1,29.88,SE,124,1.0,0.0,99,0.01,RA,OVC,0.84,WeatherDisplay:10.37,2013-01-07 19:02:00,
2013-01-07 11:07:00,42.4,42.1,29.89,ESE,123,0.0,0.0,99,0.00,CLR,OVC,0.84,WeatherDisplay:10.37,2013-01-07 19:07:00,
2013-01-07 11:12:00,42.5,42.2,29.88,SE,132,1.0,0.0,99,0.01,RA,OVC,0.85,WeatherDisplay:10.37,2013-01-07 19:12:00,
2013-01-07 11:17:00,42.6,42.3,29.88,SE,139,2.0,0.0,99,0.01,RA,OVC,0.85,WeatherDisplay:10.37,2013-01-07 19:17:00,
2013-01-07 11:22:00,42.7,42.5,29.87,SE,141,6.0,0.0,99,0.00,CLR,OVC,0.85,WeatherDisplay:10.37,2013-01-07 19:22:00,
2013-01-07 11:27:00,43.1,42.8,29.87,SSE,147,5.0,0.0,99,0.00,CLR,OVC,0.85,WeatherDisplay:10.37,2013-01-07 19:27:00,
2013-01-07 11:32:00,43.4,43.2,29.88,SSE,163,5.0,0.0,99,0.01,RA,OVC,0.86,WeatherDisplay:10.37,2013-01-07 19:32:00,
2013-01-07 11:37:00,43.9,43.7,29.88,South,172,2.0,0.0,99,0.01,RA,OVC,0.86,WeatherDisplay:10.37,2013-01-07 19:37:00,
2013-01-07 11:47:00,44.7,44.4,29.87,SSE,168,3.0,0.0,99,0.01,RA,OVC,0.87,WeatherDisplay:10.37,2013-01-07 19:47:00,
2013-01-07 11:52:00,44.9,44.9,29.87,South,173,3.0,0.0,100,0.01,RA,OVC,0.87,WeatherDisplay:10.37,2013-01-07 19:52:00,
2013-01-07 11:57:00,45.1,44.8,29.89,South,179,2.0,0.0,99,0.00,CLR,OVC,0.87,WeatherDisplay:10.37,2013-01-07 19:57:00,
2013-01-07 12:02:00,45.2,44.9,29.89,South,184,1.0,0.0,99,0.01,RA,OVC,0.88,WeatherDisplay:10.37,2013-01-07 20:02:00,
2013-01-07 12:07:00,45.3,45.0,29.89,South,185,3.0,0.0,99,0.01,RA,OVC,0.88,WeatherDisplay:10.37,2013-01-07 20:07:00,
2013-01-07 12:12:00,45.4,45.4,29.89,South,182,2.0,0.0,100,0.00,CLR,OVC,0.88,WeatherDisplay:10.37,2013-01-07 20:12:00,
2013-01-07 12:17:00,45.5,45.2,29.89,South,178,3.0,0.0,99,0.00,CLR,OVC,0.88,WeatherDisplay:10.37,2013-01-07 20:17:00,
2013-01-07 12:22:00,45.5,45.2,29.90,South,181,5.0,0.0,99,0.00,CLR,OVC,0.88,WeatherDisplay:10.37,2013-01-07 20:22:00,
2013-01-07 12:27:00,45.6,45.3,29.89,South,181,5.0,0.0,99,0.01,RA,OVC,0.89,WeatherDisplay:10.37,2013-01-07 20:27:00,
2013-01-07 12:32:00,45.6,45.3,29.89,South,190,2.0,0.0,99,0.01,RA,OVC,0.89,WeatherDisplay:10.37,2013-01-07 20:32:00,
2013-01-07 12:37:00,45.6,45.3,29.89,South,188,5.0,0.0,99,0.00,CLR,OVC,0.89,WeatherDisplay:10.37,2013-01-07 20:37:00,
2013-01-07 12:42:00,45.7,45.4,29.89,South,179,5.0,0.0,99,0.01,RA,OVC,0.90,WeatherDisplay:10.37,2013-01-07 20:42:00,
2013-01-07 12:47:00,45.7,45.4,29.89,South,186,3.0,0.0,99,0.01,RA,OVC,0.90,WeatherDisplay:10.37,2013-01-07 20:47:00,
2013-01-07 12:52:00,45.8,45.8,29.90,SSW,192,3.0,0.0,100,0.00,CLR,OVC,0.90,WeatherDisplay:10.37,2013-01-07 20:52:00,
2013-01-07 12:57:00,45.8,45.8,29.89,South,185,5.0,0.0,100,0.00,CLR,OVC,0.90,WeatherDisplay:10.37,2013-01-07 20:57:00,
2013-01-07 13:02:00,45.9,45.9,29.90,South,188,6.0,0.0,100,0.00,CLR,OVC,0.90,WeatherDisplay:10.37,2013-01-07 21:02:00,
2013-01-07 13:07:00,45.9,45.9,29.90,South,188,5.0,0.0,100,0.00,CLR,OVC,0.90,WeatherDisplay:10.37,2013-01-07 21:07:00,
2013-01-07 13:12:00,45.9,45.9,29.90,South,175,3.0,0.0,100,0.00,CLR,OVC,0.90,WeatherDisplay:10.37,2013-01-07 21:12:00,
2013-01-07 13:17:00,45.9,45.9,29.90,South,173,5.0,0.0,100,0.00,CLR,OVC,0.90,WeatherDisplay:10.37,2013-01-07 21:17:00,
2013-01-07 13:22:00,45.9,45.9,29.91,South,188,2.0,0.0,100,0.00,CLR,OVC,0.90,WeatherDisplay:10.37,2013-01-07 21:22:00,
2013-01-07 13:27:00,45.9,45.9,29.91,SSW,200,5.0,0.0,100,0.00,CLR,OVC,0.90,WeatherDisplay:10.37,2013-01-07 21:27:00,
2013-01-07 13:32:00,45.9,45.9,29.92,SSW,194,5.0,0.0,100,0.00,CLR,OVC,0.90,WeatherDisplay:10.37,2013-01-07 21:32:00,
2013-01-07 13:37:00,45.9,45.9,29.93,SSW,192,6.0,0.0,100,0.00,CLR,OVC,0.90,WeatherDisplay:10.37,2013-01-07 21:37:00,
2013-01-07 13:42:00,46.0,46.0,29.94,South,190,1.0,0.0,100,0.00,CLR,OVC,0.90,WeatherDisplay:10.37,2013-01-07 21:42:00,
2013-01-07 13:47:00,45.9,45.9,29.93,South,191,5.0,0.0,100,0.00,CLR,OVC,0.90,WeatherDisplay:10.37,2013-01-07 21:47:00,
2013-01-07 13:52:00,45.9,45.9,29.93,South,191,1.0,0.0,100,0.00,CLR,OVC,0.90,WeatherDisplay:10.37,2013-01-07 21:52:00,
2013-01-07 13:57:00,45.9,45.6,29.93,South,169,5.0,0.0,99,0.00,CLR,OVC,0.90,WeatherDisplay:10.37,2013-01-07 21:57:00,
2013-01-07 14:02:00,45.8,45.5,29.94,South,182,3.0,0.0,99,0.00,CLR,OVC,0.90,WeatherDisplay:10.37,2013-01-07 22:02:00,
2013-01-07 14:07:00,45.8,45.5,29.94,SSW,196,2.0,0.0,99,0.00,CLR,OVC,0.90,WeatherDisplay:10.37,2013-01-07 22:07:00,
2013-01-07 14:12:00,45.8,45.5,29.94,South,191,3.0,0.0,99,0.00,CLR,OVC,0.90,WeatherDisplay:10.37,2013-01-07 22:12:00,
2013-01-07 14:17:00,45.8,45.5,29.94,South,180,3.0,0.0,99,0.00,CLR,OVC,0.90,WeatherDisplay:10.37,2013-01-07 22:17:00,
2013-01-07 14:22:00,45.8,45.5,29.94,South,181,5.0,0.0,99,0.00,CLR,OVC,0.90,WeatherDisplay:10.37,2013-01-07 22:22:00,
2013-01-07 14:27:00,45.8,45.5,29.95,South,180,5.0,0.0,99,0.00,CLR,OVC,0.90,WeatherDisplay:10.37,2013-01-07 22:27:00,
2013-01-07 14:32:00,45.8,45.5,29.95,South,172,3.0,0.0,99,0.01,RA,OVC,0.91,WeatherDisplay:10.37,2013-01-07 22:32:00,
2013-01-07 14:37:00,45.7,45.5,29.95,South,182,6.0,0.0,99,0.01,RA,OVC,0.91,WeatherDisplay:10.37,2013-01-07 22:37:00,
2013-01-07 14:42:00,45.8,45.5,29.95,South,185,5.0,0.0,99,0.00,CLR,OVC,0.91,WeatherDisplay:10.37,2013-01-07 22:42:00,
2013-01-07 14:47:00,45.8,45.5,29.96,South,183,2.0,0.0,99,0.00,CLR,OVC,0.91,WeatherDisplay:10.37,2013-01-07 22:47:00,
2013-01-07 14:52:00,45.8,45.5,29.95,South,185,3.0,0.0,99,0.01,RA,OVC,0.92,WeatherDisplay:10.37,2013-01-07 22:52:00,
2013-01-07 14:57:00,45.8,45.5,29.95,SSW,195,5.0,0.0,99,0.01,RA,OVC,0.92,WeatherDisplay:10.37,2013-01-07 22:57:00,
2013-01-07 15:02:00,45.8,45.5,29.95,South,187,3.0,0.0,99,0.00,CLR,OVC,0.92,WeatherDisplay:10.37,2013-01-07 23:02:00,
2013-01-07 15:12:00,45.8,45.5,29.95,SSW,195,3.0,0.0,99,0.00,CLR,OVC,0.92,WeatherDisplay:10.37,2013-01-07 23:12:00,
2013-01-07 15:17:00,45.8,45.5,29.96,SSW,208,2.0,0.0,99,0.00,CLR,OVC,0.92,WeatherDisplay:10.37,2013-01-07 23:17:00,
2013-01-07 15:22:00,45.7,45.4,29.96,SSW,207,1.0,0.0,99,0.00,CLR,OVC,0.92,WeatherDisplay:10.37,2013-01-07 23:22:00,
2013-01-07 15:32:00,45.6,45.3,29.97,South,186,2.0,0.0,99,0.01,RA,OVC,0.93,WeatherDisplay:10.37,2013-01-07 23:32:00,
2013-01-07 15:37:00,45.6,45.6,29.98,South,186,2.0,0.0,100,0.01,RA,OVC,0.93,WeatherDisplay:10.37,2013-01-07 23:37:00,
2013-01-07 15:42:00,45.5,45.5,29.98,South,187,1.0,0.0,100,0.00,CLR,OVC,0.93,WeatherDisplay:10.37,2013-01-07 23:42:00,
2013-01-07 15:47:00,45.5,45.5,29.98,SSW,192,2.0,0.0,100,0.00,CLR,OVC,0.93,WeatherDisplay:10.37,2013-01-07 23:47:00,
2013-01-07 15:57:00,45.4,45.4,30.00,SSW,199,2.0,0.0,100,0.00,CLR,OVC,0.93,WeatherDisplay:10.37,2013-01-07 23:57:00,
2013-01-07 16:02:00,45.3,45.3,29.99,South,191,6.0,0.0,100,0.00,CLR,OVC,0.93,WeatherDisplay:10.37,2013-01-08 00:02:00,
2013-01-07 16:07:00,45.2,44.9,29.99,South,191,1.0,0.0,99,0.00,CLR,OVC,0.93,WeatherDisplay:10.37,2013-01-08 00:07:00,
2013-01-07 16:17:00,45.0,44.8,30.00,SW,214,1.0,0.0,99,0.00,CLR,OVC,0.93,WeatherDisplay:10.37,2013-01-08 00:17:00,
2013-01-07 16:22:00,45.0,45.0,30.01,SW,234,1.0,0.0,100,0.00,CLR,OVC,0.93,WeatherDisplay:10.37,2013-01-08 00:22:00,
2013-01-07 16:27:00,44.9,44.9,30.01,West,271,2.0,0.0,100,0.00,CLR,OVC,0.93,WeatherDisplay:10.37,2013-01-08 00:27:00,
2013-01-07 16:32:00,44.9,44.9,30.01,West,276,0.0,0.0,100,0.00,CLR,OVC,0.93,WeatherDisplay:10.37,2013-01-08 00:32:00,
2013-01-07 16:37:00,44.9,44.9,30.01,WNW,297,0.0,0.0,100,0.02,RA,OVC,0.95,WeatherDisplay:10.37,2013-01-08 00:37:00,
2013-01-07 16:42:00,44.8,44.8,30.01,WNW,293,0.0,0.0,100,0.03,RA,OVC,0.96,WeatherDisplay:10.37,2013-01-08 00:42:00,
2013-01-07 16:47:00,44.8,44.8,30.02,SW,227,1.0,0.0,100,0.04,RA,OVC,0.99,WeatherDisplay:10.37,2013-01-08 00:47:00,
2013-01-07 16:52:00,44.8,44.8,30.02,SSW,196,2.0,0.0,100,0.04,RA,OVC,1.00,WeatherDisplay:10.37,2013-01-08 00:52:00,
2013-01-07 16:57:00,44.7,44.7,30.02,South,188,1.0,0.0,100,0.01,RA,OVC,1.00,WeatherDisplay:10.37,2013-01-08 00:57:00,
2013-01-07 17:02:00,44.7,44.7,30.02,South,191,1.0,0.0,100,0.01,RA,OVC,1.01,WeatherDisplay:10.37,2013-01-08 01:02:00,
2013-01-07 17:07:00,44.6,44.4,30.01,South,178,1.0,0.0,99,0.01,RA,OVC,1.01,WeatherDisplay:10.37,2013-01-08 01:07:00,
2013-01-07 17:12:00,44.6,44.3,30.02,South,176,0.0,0.0,99,0.00,CLR,OVC,1.01,WeatherDisplay:10.37,2013-01-08 01:12:00,
2013-01-07 17:17:00,44.6,44.3,30.02,South,190,1.0,0.0,99,0.00,CLR,OVC,1.01,WeatherDisplay:10.37,2013-01-08 01:17:00,
2013-01-07 17:22:00,44.5,44.2,30.02,SSW,192,1.0,0.0,99,0.00,CLR,OVC,1.01,WeatherDisplay:10.37,2013-01-08 01:22:00,
2013-01-07 17:27:00,44.5,44.2,30.03,SSW,195,1.0,0.0,99,0.00,CLR,OVC,1.01,WeatherDisplay:10.37,2013-01-08 01:27:00,
2013-01-07 17:32:00,44.5,44.2,30.02,South,186,2.0,0.0,99,0.00,CLR,OVC,1.01,WeatherDisplay:10.37,2013-01-08 01:32:00,
2013-01-07 17:37:00,44.5,44.2,30.03,SSW,193,1.0,0.0,99,0.00,CLR,OVC,1.01,WeatherDisplay:10.37,2013-01-08 01:37:00,
2013-01-07 17:42:00,44.4,44.1,30.03,SSW,196,1.0,0.0,99,0.00,CLR,OVC,1.01,WeatherDisplay:10.37,2013-01-08 01:42:00,
2013-01-07 17:47:00,44.4,44.1,30.03,SSW,200,0.0,0.0,99,0.00,CLR,OVC,1.01,WeatherDisplay:10.37,2013-01-08 01:47:00,
2013-01-07 17:52:00,44.3,44.3,30.03,SW,224,1.0,0.0,100,0.00,CLR,OVC,1.01,WeatherDisplay:10.37,2013-01-08 01:52:00,
2013-01-07 17:57:00,44.3,44.3,30.03,SSW,213,1.0,0.0,100,0.00,CLR,OVC,1.01,WeatherDisplay:10.37,2013-01-08 01:57:00,
2013-01-07 18:02:00,44.2,44.2,30.03,SSW,202,2.0,0.0,100,0.00,CLR,OVC,1.01,WeatherDisplay:10.37,2013-01-08 02:02:00,
2013-01-07 18:07:00,44.2,44.2,30.04,SSW,205,1.0,0.0,100,0.00,CLR,OVC,1.01,WeatherDisplay:10.37,2013-01-08 02:07:00,
2013-01-07 18:12:00,44.2,44.2,30.04,SW,215,0.0,0.0,100,0.00,CLR,OVC,1.01,WeatherDisplay:10.37,2013-01-08 02:12:00,
2013-01-07 18:17:00,44.2,44.2,30.04,SW,223,1.0,0.0,100,0.00,CLR,OVC,1.01,WeatherDisplay:10.37,2013-01-08 02:17:00,
2013-01-07 18:22:00,44.2,44.2,30.04,SW,227,2.0,0.0,100,0.00,CLR,OVC,1.01,WeatherDisplay:10.37,2013-01-08 02:22:00,
2013-01-07 18:27:00,44.1,44.1,30.04,WSW,238,0.0,0.0,100,0.00,CLR,OVC,1.01,WeatherDisplay:10.37,2013-01-08 02:27:00,
2013-01-07 18:32:00,44.1,44.1,30.05,WSW,246,0.0,0.0,100,0.00,CLR,OVC,1.01,WeatherDisplay:10.37,2013-01-08 02:32:00,
2013-01-07 18:42:00,44.0,43.8,30.05,SW,229,0.0,0.0,99,0.00,CLR,OVC,1.01,WeatherDisplay:10.37,2013-01-08 02:42:00,
2013-01-07 18:47:00,44.0,43.7,30.06,SW,229,0.0,0.0,99,0.00,CLR,OVC,1.01,WeatherDisplay:10.37,2013-01-08 02:47:00,
2013-01-07 18:52:00,44.0,43.7,30.06,SW,229,0.0,0.0,99,0.00,CLR,OVC,1.01,WeatherDisplay:10.37,2013-01-08 02:52:00,
2013-01-07 18:57:00,44.0,43.7,30.06,SW,229,0.0,0.0,99,0.00,CLR,OVC,1.01,WeatherDisplay:10.37,2013-01-08 02:57:00,
2013-01-07 19:02:00,44.0,43.7,30.07,SW,229,0.0,0.0,99,0.00,CLR,OVC,1.01,WeatherDisplay:10.37,2013-01-08 03:02:00,
2013-01-07 19:07:00,43.9,43.6,30.07,WSW,239,0.0,0.0,99,0.00,CLR,OVC,1.01,WeatherDisplay:10.37,2013-01-08 03:07:00,
2013-01-07 19:12:00,43.9,43.6,30.07,WSW,253,0.0,0.0,99,0.00,CLR,OVC,1.01,WeatherDisplay:10.37,2013-01-08 03:12:00,
2013-01-07 19:17:00,43.9,43.6,30.07,WSW,253,0.0,0.0,99,0.00,CLR,OVC,1.01,WeatherDisplay:10.37,2013-01-08 03:17:00,
2013-01-07 19:22:00,43.9,43.6,30.07,WSW,252,0.0,0.0,99,0.00,CLR,OVC,1.01,WeatherDisplay:10.37,2013-01-08 03:22:00,
2013-01-07 19:27:00,43.9,43.9,30.07,SSW,196,0.0,0.0,100,0.00,CLR,OVC,1.01,WeatherDisplay:10.37,2013-01-08 03:27:00,
2013-01-07 19:32:00,43.8,43.8,30.07,SE,146,1.0,0.0,100,0.00,CLR,OVC,1.01,WeatherDisplay:10.37,2013-01-08 03:32:00,
2013-01-07 19:37:00,43.8,43.8,30.07,NNW,338,3.0,0.0,100,0.00,CLR,OVC,1.01,WeatherDisplay:10.37,2013-01-08 03:37:00,
2013-01-07 19:42:00,43.8,43.8,30.07,NNW,331,0.0,0.0,100,0.00,CLR,OVC,1.01,WeatherDisplay:10.37,2013-01-08 03:42:00,
2013-01-07 19:47:00,43.8,43.8,30.07,NW,319,0.0,0.0,100,0.00,CLR,OVC,1.01,WeatherDisplay:10.37,2013-01-08 03:47:00,
2013-01-07 19:52:00,43.7,43.7,30.07,NW,314,0.0,0.0,100,0.00,CLR,OVC,1.01,WeatherDisplay:10.37,2013-01-08 03:52:00,
2013-01-07 19:57:00,43.5,43.5,30.07,NNE,23,1.0,0.0,100,0.03,RA,OVC,1.04,WeatherDisplay:10.37,2013-01-08 03:57:00,
2013-01-07 20:02:00,42.2,41.9,30.07,NE,42,0.0,0.0,99,0.04,RA,OVC,1.05,WeatherDisplay:10.37,2013-01-08 04:02:00,
2013-01-07 20:07:00,41.0,40.7,30.07,SW,227,2.0,0.0,99,0.02,RA,OVC,1.06,WeatherDisplay:10.37,2013-01-08 04:07:00,
2013-01-07 20:12:00,40.3,40.1,30.08,SW,220,1.0,0.0,99,0.04,RA,OVC,1.09,WeatherDisplay:10.37,2013-01-08 04:12:00,
2013-01-07 20:17:00,39.6,39.3,30.08,South,188,1.0,0.0,99,0.03,RA,OVC,1.09,WeatherDisplay:10.37,2013-01-08 04:17:00,
2013-01-07 20:22:00,39.4,39.2,30.08,South,185,1.0,0.0,99,0.00,CLR,OVC,1.09,WeatherDisplay:10.37,2013-01-08 04:22:00,
2013-01-07 20:27:00,39.6,39.3,30.09,SSW,203,1.0,0.0,99,0.02,RA,OVC,1.11,WeatherDisplay:10.37,2013-01-08 04:27:00,
2013-01-07 20:32:00,39.6,39.4,30.09,SSW,209,1.0,0.0,99,0.03,RA,OVC,1.12,WeatherDisplay:10.37,2013-01-08 04:32:00,
2013-01-07 20:37:00,39.7,39.4,30.09,SSW,202,0.0,0.0,99,0.02,RA,OVC,1.13,WeatherDisplay:10.37,2013-01-08 04:37:00,
2013-01-07 20:42:00,39.8,39.5,30.09,SW,216,0.0,0.0,99,0.01,RA,OVC,1.13,WeatherDisplay:10.37,2013-01-08 04:42:00,
2013-01-07 20:47:00,39.9,39.6,30.10,SW,229,0.0,0.0,99,0.00,CLR,OVC,1.13,WeatherDisplay:10.37,2013-01-08 04:47:00,
2013-01-07 20:52:00,40.1,39.8,30.10,SW,231,1.0,0.0,99,0.00,CLR,OVC,1.13,WeatherDisplay:10.37,2013-01-08 04:52:00,
2013-01-07 20:57:00,40.1,39.9,30.10,WSW,246,1.0,0.0,99,0.00,CLR,OVC,1.13,WeatherDisplay:10.37,2013-01-08 04:57:00,
2013-01-07 21:02:00,40.2,39.9,30.11,West,270,1.0,0.0,99,0.02,RA,OVC,1.15,WeatherDisplay:10.37,2013-01-08 05:02:00,
2013-01-07 21:07:00,40.2,39.9,30.11,WNW,287,1.0,0.0,99,0.02,RA,OVC,1.15,WeatherDisplay:10.37,2013-01-08 05:07:00,
2013-01-07 21:12:00,40.2,39.9,30.11,SSW,213,1.0,0.0,99,0.02,RA,OVC,1.17,WeatherDisplay:10.37,2013-01-08 05:12:00,
2013-01-07 21:17:00,40.4,40.1,30.11,SW,225,1.0,0.0,99,0.06,RA,OVC,1.21,WeatherDisplay:10.37,2013-01-08 05:17:00,
2013-01-07 21:22:00,40.1,39.8,30.11,SW,217,0.0,0.0,99,0.06,RA,OVC,1.23,WeatherDisplay:10.37,2013-01-08 05:22:00,
2013-01-07 21:27:00,39.7,39.4,30.11,SSE,167,0.0,0.0,99,0.02,RA,OVC,1.23,WeatherDisplay:10.37,2013-01-08 05:27:00,
2013-01-07 21:32:00,39.7,39.4,30.12,SSW,208,1.0,0.0,99,0.00,CLR,OVC,1.23,WeatherDisplay:10.37,2013-01-08 05:32:00,
2013-01-07 21:37:00,39.8,39.5,30.12,SW,214,2.0,0.0,99,0.01,RA,OVC,1.24,WeatherDisplay:10.37,2013-01-08 05:37:00,
2013-01-07 21:42:00,39.9,39.6,30.12,SSW,210,1.0,0.0,99,0.02,RA,OVC,1.25,WeatherDisplay:10.37,2013-01-08 05:42:00,
2013-01-07 21:47:00,39.9,39.6,30.13,SW,228,1.0,0.0,99,0.01,RA,OVC,1.25,WeatherDisplay:10.37,2013-01-08 05:47:00,
2013-01-07 21:52:00,39.9,39.7,30.13,SW,236,0.0,0.0,99,0.00,CLR,OVC,1.25,WeatherDisplay:10.37,2013-01-08 05:52:00,
2013-01-07 21:57:00,40.0,39.7,30.13,SW,236,0.0,0.0,99,0.00,CLR,OVC,1.25,WeatherDisplay:10.37,2013-01-08 05:57:00,
2013-01-07 22:02:00,40.0,39.7,30.13,SW,235,0.0,0.0,99,0.01,RA,OVC,1.26,WeatherDisplay:10.37,2013-01-08 06:02:00,
2013-01-07 22:07:00,40.0,39.7,30.13,SW,233,1.0,0.0,99,0.01,RA,OVC,1.26,WeatherDisplay:10.37,2013-01-08 06:07:00,
2013-01-07 22:12:00,40.0,39.7,30.13,SW,231,0.0,0.0,99,0.00,CLR,OVC,1.26,WeatherDisplay:10.37,2013-01-08 06:12:00,
2013-01-07 22:17:00,40.0,39.7,30.13,SW,231,0.0,0.0,99,0.00,CLR,OVC,1.26,WeatherDisplay:10.37,2013-01-08 06:17:00,
2013-01-07 22:22:00,40.0,39.7,30.13,SW,231,0.0,0.0,99,0.00,CLR,OVC,1.26,WeatherDisplay:10.37,2013-01-08 06:22:00,
2013-01-07 22:27:00,40.1,39.8,30.14,SSW,204,0.0,0.0,99,0.01,RA,OVC,1.27,WeatherDisplay:10.37,2013-01-08 06:27:00,
2013-01-07 22:32:00,40.1,40.1,30.14,South,171,0.0,0.0,100,0.01,RA,OVC,1.27,WeatherDisplay:10.37,2013-01-08 06:32:00,
2013-01-07 22:37:00,40.1,40.1,30.14,South,171,0.0,0.0,100,0.00,CLR,OVC,1.27,WeatherDisplay:10.37,2013-01-08 06:37:00,
2013-01-07 22:42:00,40.1,40.1,30.14,South,171,0.0,0.0,100,0.01,RA,OVC,1.28,WeatherDisplay:10.37,2013-01-08 06:42:00,
2013-01-07 22:47:00,40.1,40.1,30.14,SSE,155,1.0,0.0,100,0.02,RA,OVC,1.29,WeatherDisplay:10.37,2013-01-08 06:47:00,
2013-01-07 22:52:00,40.1,40.1,30.14,East,97,0.0,0.0,100,0.02,RA,OVC,1.30,WeatherDisplay:10.37,2013-01-08 06:52:00,
2013-01-07 22:57:00,40.1,39.8,30.14,East,80,0.0,0.0,99,0.03,RA,OVC,1.32,WeatherDisplay:10.37,2013-01-08 06:57:00,
2013-01-07 23:02:00,40.1,40.1,30.14,East,80,0.0,0.0,100,0.02,RA,OVC,1.32,WeatherDisplay:10.37,2013-01-08 07:02:00,
2013-01-07 23:07:00,40.1,40.1,30.15,East,80,0.0,0.0,100,0.02,RA,OVC,1.34,WeatherDisplay:10.37,2013-01-08 07:07:00,
2013-01-07 23:12:00,40.1,40.1,30.15,East,83,1.0,0.0,100,0.03,RA,OVC,1.35,WeatherDisplay:10.37,2013-01-08 07:12:00,
2013-01-07 23:17:00,40.2,40.2,30.15,East,88,0.0,0.0,100,0.01,RA,OVC,1.35,WeatherDisplay:10.37,2013-01-08 07:17:00,
2013-01-07 23:22:00,40.2,40.2,30.15,East,86,1.0,0.0,100,0.00,CLR,OVC,1.35,WeatherDisplay:10.37,2013-01-08 07:22:00,
2013-01-07 23:27:00,40.2,40.2,30.15,East,81,0.0,0.0,100,0.00,CLR,OVC,1.35,WeatherDisplay:10.37,2013-01-08 07:27:00,
2013-01-07 23:32:00,40.2,40.2,30.15,East,79,0.0,0.0,100,0.00,CLR,OVC,1.35,WeatherDisplay:10.37,2013-01-08 07:32:00,
2013-01-07 23:37:00,40.3,40.3,30.15,East,79,0.0,0.0,100,0.00,CLR,OVC,1.35,WeatherDisplay:10.37,2013-01-08 07:37:00,
2013-01-07 23:42:00,40.3,40.3,30.14,ENE,78,0.0,0.0,100,0.00,CLR,OVC,1.35,WeatherDisplay:10.37,2013-01-08 07:42:00,
2013-01-07 23:47:00,40.3,40.3,30.15,ENE,76,0.0,0.0,100,0.00,CLR,OVC,1.35,WeatherDisplay:10.37,2013-01-08 07:47:00,
2013-01-07 23:52:00,40.3,40.3,30.15,East,84,1.0,0.0,100,0.00,CLR,OVC,1.35,WeatherDisplay:10.37,2013-01-08 07:52:00,
2013-01-07 23:57:00,40.3,40.3,30.15,East,86,0.0,0.0,100,0.00,CLR,OVC,1.35,WeatherDisplay:10.37,2013-01-08 07:57:00,